Wind_Speed
39 41 42 43 45 46 46 47 47 48 48 48 48 48 48 47 48 48 49 50 51 53 54 56 57 58 60 61 62 62 63 63 63 62 64 65 65 65 64 62 60 57 54
40 42 43 44 45 46 47 49 50 50 51 51 51 51 51 51 51 52 53 54 55 55 56 57 58 58 59 59 60 60 60 61 61 60 61 62 61 59 58 55 52 49 46
42 43 44 46 47 48 49 51 52 53 53 53 53 53 54 54 55 55 56 56 57 57 57 57 57 57 57 58 58 58 58 58 59 59 58 57 55 53 50 47 44 42 41
45 46 47 48 49 51 52 53 54 54 54 55 55 56 56 57 57 57 58 58 57 57 56 55 55 55 55 55 55 56 56 57 56 55 52 49 47 44 42 40 39 39 38
48 49 51 52 52 53 53 54 54 54 55 56 56 57 58 58 59 58 58 57 56 55 55 55 54 54 53 53 53 54 54 53 51 48 45 41 39 38 38 38 38 36 35
50 51 52 52 52 53 53 53 54 55 55 56 57 58 58 58 58 58 57 56 55 54 53 53 52 51 50 50 51 51 50 47 44 41 37 35 35 36 36 35 34 32 30
49 49 49 49 50 51 51 51 52 54 55 56 57 57 57 57 56 55 54 54 53 52 51 50 49 49 47 47 47 46 43 41 37 34 32 33 34 33 32 30 29 28 28
44 44 45 47 48 49 50 51 52 53 54 55 55 55 54 54 53 53 52 51 50 49 48 47 46 45 44 42 41 39 37 34 32 31 32 32 31 29 28 28 27 26 25
42 43 44 46 48 49 50 51 51 52 53 53 52 52 52 51 51 51 50 49 48 46 44 43 42 40 38 36 34 32 30 28 29 30 29 28 27 27 26 26 25 24 23
42 43 44 45 47 48 48 49 49 50 50 50 50 49 49 48 48 48 47 45 43 41 40 38 36 33 31 29 26 24 23 24 25 26 26 25 26 26 25 24 23 22 22
42 43 43 44 44 45 46 47 47 47 47 47 46 46 46 45 44 43 41 39 37 35 33 31 29 25 23 21 19 18 19 20 21 22 23 23 24 24 24 23 21 21 21
40 41 41 41 42 42 43 43 44 44 43 43 42 42 41 40 39 37 35 33 31 28 26 24 20 16 14 13 13 15 16 17 18 20 21 21 22 21 21 20 20 20 20
37 38 38 39 40 40 40 40 40 40 40 39 38 38 36 35 33 31 28 25 23 20 17 13 9 7 7 8 10 12 13 15 17 19 20 20 20 19 19 19 20 20 20
36 37 37 37 37 37 37 37 36 35 34 33 32 31 30 27 25 22 19 16 13 10 6 3 2 2 4 7 8 10 12 15 17 18 19 19 18 18 18 19 20 20 20
34 35 34 34 33 32 32 31 30 29 27 26 24 23 21 19 15 12 9 6 3 0 2 3 4 5 6 7 8 11 13 15 17 18 18 18 18 18 18 19 20 21 22
30 30 29 28 27 27 25 24 23 22 21 20 18 15 13 10 7 4 2 3 5 5 6 6 6 7 7 8 10 12 13 15 16 17 18 19 19 19 18 19 19 21 21
25 24 23 22 22 21 19 17 16 16 15 14 13 11 9 7 6 6 7 8 9 9 9 9 9 9 10 11 12 13 14 15 17 18 19 19 19 19 19 19 19 20 21
20 19 18 18 17 16 15 13 12 11 11 11 10 10 9 9 9 10 11 11 11 11 11 11 12 12 13 13 14 15 16 17 17 18 18 19 19 19 19 19 19 19 20
18 16 15 15 14 13 12 12 11 10 10 10 10 11 11 12 12 13 13 13 13 13 13 13 14 14 14 15 15 16 17 18 18 18 19 19 19 19 19 19 19 19 19
15 15 14 14 13 12 12 11 11 11 11 12 12 13 13 13 13 14 14 14 15 15 15 15 15 15 15 15 16 16 16 17 18 19 19 20 20 20 20 20 20 19 19
14 14 14 13 13 13 12 12 12 12 13 13 13 14 14 14 14 14 15 15 15 15 15 15 15 15 14 15 15 15 15 16 18 18 19 19 20 20 20 20 20 20 19
14 13 13 13 13 13 13 12 12 12 13 14 14 14 14 14 14 14 15 15 15 15 15 15 14 14 14 13 14 14 14 15 16 17 18 19 19 20 20 21 21 21 20
12 12 12 12 13 13 12 12 12 12 12 13 13 13 13 13 14 14 14 14 14 14 14 14 13 13 12 12 13 13 14 14 16 17 18 18 19 20 20 21 21 21 21
11 11 12 12 12 12 11 11 11 11 11 12 12 12 12 12 13 13 13 13 13 13 13 12 12 12 12 12 12 13 13 14 15 17 18 18 19 20 21 22 22 22 22
10 11 11 11 11 11 11 10 10 10 10 10 10 10 11 11 11 11 12 12 12 12 11 11 11 11 11 11 12 12 13 14 15 17 18 18 20 21 22 23 24 24 24
9 10 10 10 10 10 10 10 9 9 9 9 9 9 9 10 10 10 10 11 10 10 10 11 10 10 11 11 12 13 14 15 16 18 18 19 20 21 22 23 24 25 25
Wind_Direction
270 273 276 278 281 283 284 286 287 288 289 290 291 292 293 293 294 294 294 294 294 293 292 291 291 291 291 291 292 293 293 294 294 294 294 294 294 294 294 294 294 293 292
270 273 276 278 280 282 283 284 286 287 288 288 289 290 291 292 293 293 294 294 294 293 293 293 293 293 293 294 294 295 295 295 296 296 295 295 296 296 296 295 295 294 294
271 274 276 278 280 281 282 284 285 285 286 287 288 289 290 292 293 294 295 295 295 295 295 295 295 295 296 296 296 296 297 297 297 298 298 297 297 297 297 297 297 296 296
273 275 276 278 279 280 281 283 283 284 285 286 288 289 290 292 294 294 295 296 296 296 296 296 297 297 297 297 298 298 298 299 299 300 300 299 299 299 300 300 300 299 298
274 275 276 277 278 279 280 281 282 283 285 286 288 291 292 293 294 294 294 295 295 296 296 297 297 298 298 298 299 299 300 301 301 302 302 302 302 302 302 303 302 302 301
274 276 276 277 277 278 279 281 282 284 287 289 291 292 293 293 293 293 294 294 294 295 296 297 298 298 299 299 300 301 302 302 303 303 304 304 305 305 306 305 306 306 305
273 275 276 277 279 280 282 284 287 289 290 291 292 292 293 293 293 293 293 294 294 295 296 297 297 298 299 301 302 303 303 303 304 306 307 308 309 309 310 311 312 312 312
275 278 281 284 286 288 290 291 291 291 291 291 292 292 292 293 293 293 294 294 294 295 296 297 298 299 301 301 302 302 303 305 307 310 312 314 316 316 317 317 317 317 316
284 287 289 290 292 292 292 292 292 292 292 292 292 293 293 293 294 294 294 295 295 295 296 297 298 299 300 300 300 301 304 306 310 314 317 319 321 323 324 324 324 324 322
294 294 294 293 293 293 293 293 293 293 294 294 294 294 294 295 295 296 295 295 295 295 295 295 296 297 297 298 300 302 306 311 315 319 322 325 328 330 330 329 329 329 328
296 296 296 295 295 296 296 296 296 296 296 296 295 295 296 296 296 296 296 295 295 294 294 294 295 295 295 297 301 307 313 318 323 326 328 331 335 337 337 338 337 336 336
298 299 299 299 299 298 298 298 297 297 297 297 297 297 298 297 297 296 296 295 294 293 293 293 293 292 294 301 310 318 325 330 333 336 340 343 346 349 351 352 352 350 348
301 301 301 301 301 301 300 300 299 299 299 298 298 298 298 298 297 295 294 294 294 294 293 291 290 293 305 319 329 335 340 344 348 352 354 356 358 1 3 4 3 2 3
305 304 304 303 303 303 303 303 302 302 302 302 301 301 301 301 299 297 295 293 293 292 291 292 316 349 354 353 354 356 359 2 3 4 6 7 9 12 14 15 14 15 16
308 307 307 306 306 307 308 308 308 308 309 310 310 309 308 307 305 302 299 296 291 299 89 78 65 45 28 21 19 19 17 16 16 17 18 20 22 23 24 24 25 26 26
312 312 311 311 312 314 315 315 316 317 319 321 323 325 326 328 329 337 36 89 96 94 88 80 70 61 54 49 44 37 31 29 29 28 28 29 30 31 31 32 31 31 31
321 321 320 321 322 324 325 326 327 330 333 339 346 353 2 18 49 75 86 91 90 89 86 82 80 77 73 66 58 50 44 41 38 35 34 34 35 35 36 36 35 34 34
333 333 333 334 335 338 342 344 347 351 356 1 10 23 40 60 75 84 87 88 88 88 88 89 88 86 81 73 65 58 53 47 43 40 38 37 36 36 35 35 34 34 34
345 346 346 347 350 355 360 4 11 15 19 26 38 49 62 74 81 83 84 87 89 90 92 92 92 87 82 76 69 62 56 50 46 43 41 39 37 36 35 34 34 33 33
357 359 2 5 7 11 15 22 27 32 39 48 57 65 72 77 81 83 86 88 89 92 93 93 91 88 82 77 71 64 57 52 48 44 41 38 36 35 34 33 33 32 31
8 11 14 17 21 26 30 35 41 47 52 58 65 70 73 77 81 85 88 90 91 93 93 92 90 88 84 78 71 63 57 52 48 44 40 37 35 33 32 32 32 32 32
13 19 23 26 31 36 39 43 48 53 58 62 67 70 73 78 82 88 90 91 92 92 91 90 89 86 82 76 69 61 55 51 46 41 37 35 34 33 33 33 33 33 33
18 24 30 34 38 39 42 47 52 55 59 63 67 71 75 79 85 90 91 91 92 91 90 87 85 82 77 72 65 57 51 47 45 40 36 34 34 34 34 34 34 33 33
25 30 33 35 36 37 41 46 51 55 58 63 68 72 77 81 85 90 91 91 91 89 87 85 81 76 71 66 59 53 49 46 44 42 39 37 39 40 39 38 37 37 37
26 31 34 35 35 36 39 44 49 54 58 63 69 75 80 84 88 91 92 92 92 89 86 82 78 73 68 63 57 52 48 46 45 45 45 45 46 47 46 44 43 43 43
29 32 34 34 36 38 41 44 48 54 60 66 73 78 83 88 92 94 94 94 93 89 86 82 77 72 68 62 57 53 50 49 50 52 53 53 51 50 48 46 45 45 45
Height
5796 5794 5793 5791 5789 5787 5785 5783 5780 5778 5775 5772 5769 5766 5763 5760 5757 5753 5750 5747 5743 5739 5734 5730 5725 5720 5714 5708 5702 5696 5690 5684 5680 5675 5665 5657 5649 5642 5635 5627 5621 5615 5609
5787 5786 5784 5782 5780 5778 5775 5772 5770 5767 5764 5761 5757 5754 5751 5748 5744 5740 5737 5733 5729 5725 5720 5715 5710 5705 5699 5694 5688 5681 5675 5668 5662 5658 5650 5641 5633 5625 5618 5612 5605 5600 5594
5778 5776 5774 5772 5770 5767 5764 5761 5758 5755 5752 5748 5745 5741 5738 5734 5731 5727 5723 5718 5714 5710 5705 5700 5695 5690 5685 5679 5673 5667 5660 5653 5646 5640 5634 5625 5618 5610 5604 5598 5592 5587 5581
5767 5765 5763 5760 5758 5755 5752 5749 5746 5742 5739 5735 5732 5728 5724 5721 5716 5712 5708 5704 5700 5695 5691 5686 5681 5676 5671 5665 5659 5653 5646 5639 5632 5625 5619 5612 5604 5597 5592 5587 5582 5576 5571
5755 5753 5751 5748 5745 5742 5739 5736 5732 5729 5725 5722 5718 5714 5711 5707 5702 5698 5694 5690 5686 5681 5677 5672 5668 5663 5658 5651 5645 5639 5632 5626 5619 5612 5606 5600 5594 5588 5582 5577 5571 5566 5561
5742 5740 5738 5735 5732 5729 5726 5722 5719 5715 5712 5708 5705 5701 5697 5692 5688 5684 5680 5676 5672 5668 5664 5659 5655 5650 5645 5639 5632 5626 5620 5614 5608 5602 5596 5590 5585 5579 5573 5567 5562 5557 5553
5730 5727 5725 5722 5719 5716 5712 5709 5705 5702 5698 5694 5691 5687 5682 5677 5674 5670 5666 5662 5658 5655 5651 5646 5642 5637 5632 5627 5621 5615 5609 5603 5598 5593 5588 5583 5577 5571 5566 5560 5554 5549 5544
5717 5714 5712 5709 5706 5703 5699 5696 5692 5688 5684 5681 5677 5673 5668 5663 5659 5656 5652 5648 5645 5641 5637 5633 5629 5625 5620 5616 5611 5605 5600 5595 5591 5586 5581 5575 5570 5564 5558 5553 5548 5544 5539
5705 5702 5699 5697 5693 5690 5686 5683 5679 5674 5670 5667 5663 5658 5654 5650 5645 5642 5638 5635 5631 5628 5625 5621 5618 5614 5610 5606 5602 5598 5594 5589 5585 5580 5575 5569 5564 5558 5553 5548 5543 5538 5534
5694 5691 5688 5685 5681 5677 5673 5669 5665 5660 5656 5652 5648 5644 5640 5636 5632 5628 5624 5621 5618 5615 5613 5610 5607 5604 5601 5598 5595 5592 5589 5585 5580 5575 5570 5565 5560 5554 5549 5543 5538 5534 5530
5684 5680 5676 5672 5669 5665 5660 5656 5651 5647 5643 5638 5635 5631 5627 5623 5619 5615 5612 5609 5606 5604 5602 5600 5598 5596 5594 5592 5590 5587 5584 5581 5577 5572 5567 5562 5556 5551 5545 5540 5535 5531 5526
5673 5669 5665 5661 5657 5653 5648 5643 5639 5634 5630 5626 5622 5618 5614 5611 5608 5604 5601 5598 5596 5594 5593 5592 5591 5590 5589 5588 5586 5584 5581 5578 5574 5569 5564 5559 5554 5549 5544 5539 5534 5529 5525
5663 5659 5655 5650 5646 5641 5637 5632 5628 5623 5619 5615 5611 5607 5604 5600 5597 5594 5592 5589 5588 5587 5586 5586 5586 5586 5586 5585 5584 5582 5579 5576 5572 5567 5563 5558 5553 5549 5544 5539 5534 5530 5525
5654 5649 5645 5641 5636 5632 5627 5622 5618 5613 5609 5605 5601 5598 5594 5591 5588 5586 5584 5583 5583 5583 5583 5583 5584 5585 5585 5584 5583 5581 5578 5575 5571 5567 5562 5558 5554 5549 5545 5540 5536 5531 5526
5645 5640 5636 5632 5627 5623 5618 5613 5609 5605 5601 5598 5594 5590 5587 5585 5583 5581 5580 5580 5580 5581 5582 5583 5584 5585 5585 5584 5583 5581 5578 5575 5572 5568 5564 5559 5555 5551 5547 5543 5538 5534 5529
5638 5633 5629 5624 5620 5616 5612 5608 5603 5600 5596 5593 5589 5586 5584 5581 5580 5579 5579 5580 5581 5582 5583 5584 5585 5585 5585 5585 5583 5582 5579 5576 5573 5570 5566 5562 5558 5553 5549 5546 5542 5537 5533
5632 5627 5623 5619 5615 5612 5608 5604 5601 5597 5594 5591 5588 5585 5583 5581 5580 5580 5581 5582 5583 5584 5585 5586 5586 5587 5586 5586 5585 5583 5581 5579 5575 5572 5569 5565 5561 5557 5553 5549 5545 5541 5537
5629 5624 5620 5617 5613 5609 5606 5603 5600 5597 5594 5591 5589 5587 5585 5584 5583 5583 5584 5585 5586 5587 5588 5588 5588 5589 5589 5588 5587 5586 5584 5581 5578 5575 5572 5568 5565 5561 5557 5553 5549 5545 5541
5627 5623 5619 5616 5612 5609 5606 5603 5601 5598 5595 5593 5591 5589 5588 5587 5587 5587 5588 5588 5589 5590 5591 5591 5591 5592 5592 5592 5591 5589 5587 5585 5582 5579 5576 5572 5569 5565 5561 5557 5553 5549 5545
5627 5623 5620 5616 5613 5610 5608 5605 5602 5600 5598 5596 5594 5593 5592 5592 5592 5592 5592 5593 5593 5594 5594 5595 5595 5595 5596 5595 5594 5593 5591 5589 5586 5583 5580 5576 5573 5569 5565 5561 5557 5553 5549
5628 5625 5621 5618 5615 5612 5610 5607 5605 5603 5601 5600 5599 5598 5597 5596 5596 5596 5597 5597 5597 5598 5598 5599 5599 5599 5599 5599 5598 5597 5595 5593 5590 5587 5584 5581 5577 5573 5569 5565 5561 5557 5554
5629 5626 5623 5621 5618 5615 5613 5611 5609 5607 5606 5604 5603 5602 5602 5601 5601 5601 5601 5602 5602 5602 5603 5603 5603 5603 5603 5603 5602 5600 5599 5596 5594 5591 5588 5585 5581 5578 5574 5570 5566 5562 5558
5631 5629 5626 5623 5621 5619 5617 5615 5613 5611 5610 5609 5608 5607 5606 5606 5606 5606 5606 5606 5606 5607 5607 5607 5607 5607 5607 5606 5605 5604 5602 5600 5597 5595 5592 5589 5585 5582 5578 5574 5570 5566 5562
5633 5631 5629 5626 5624 5622 5620 5618 5617 5615 5614 5613 5612 5611 5611 5610 5610 5610 5610 5611 5611 5611 5611 5611 5611 5611 5610 5610 5609 5607 5605 5603 5601 5598 5596 5593 5590 5586 5583 5579 5575 5571 5567
5635 5633 5631 5629 5627 5625 5623 5621 5620 5618 5617 5616 5616 5615 5615 5614 5614 5614 5614 5615 5615 5615 5615 5615 5615 5614 5614 5613 5612 5610 5609 5607 5604 5602 5600 5597 5594 5591 5588 5584 5580 5577 5573
5637 5635 5633 5631 5629 5627 5626 5624 5622 5621 5620 5619 5619 5618 5618 5618 5618 5618 5618 5618 5619 5619 5619 5618 5618 5618 5617 5616 5615 5614 5612 5610 5608 5606 5604 5602 5599 5596 5593 5589 5586 5582 5578